(21) Lutetia
ephemeris date magn radius delta ra dec elong phase
Today9 Feb 202511.42.833 AU1.854 AU10h08m+15°59'170.7°3.2°
Opposition15 Feb 202511.32.834 AU1.848 AU10h02m+16°36'175.7°1.5°
(21) Lutetia - 2025-02-09
astro.vanbuitenen.nl


 
-1 year
-1 month
-1 day
Now
+1 day
+1 month
+1 year

The interactive orbit chart above shows the body's path through the solar system and its position at the given date. Green and blue lines are shown perpendicular to the ecliptic plane: Green if the path is above the ecliptic plane, blue if it is below. (Left-click and drag to rotate the view; Right-click and drag to move the view; Use scroll wheel to zoom in our out.)

The orbital elements of Lutetia are:

            e (Eccentricity)                : 0.1646959
            a (Semimajor axis)              : 2.4341176
            i (Inclination)                 : 3.06459
            Ω (Longitude of ascending node) : 80.83729
            ω (Argument of perihelion)      : 250.03030
            M (Mean anomaly)                : 142.86885
            Epoch                           : 2024 Oct 17

            L (Longitude of perihelion)     : 150.84126
            B (Latitude of perihelion)      : -2.88017
            P (Orbital period in years)     : 3.80            
        

The light curve chart below shows the estimated development of the minor planet's magnitude.


The all-sky chart below shows the path of the minor planet over the same period as the light curve. The current position is marked yellow.





The following chart shows the path of the minor planet in the next few days. The field of view is optimized for (~10x50) binoculars and finderscopes. A more printer-friendly version of the same chart can be found below.




Ephemerides:
Date       Time       RA (2000)    DEC (2000)    delta   radius  elong  phase   PA    magn
2025-02-09 00:00 UT   10 08 22.5   +15 59 44     1.854    2.833  170.7    3.2   264   11.4 
2025-02-09 15:26 UT   10 07 46.4   +16 03 28     1.853    2.833  171.4    3.0   261   11.4 
2025-02-10 00:00 UT   10 07 26.2   +16 05 32     1.853    2.833  171.8    2.8   260   11.4 
2025-02-11 00:00 UT   10 06 29.5   +16 11 19     1.851    2.833  172.8    2.5   254   11.4 
2025-02-12 00:00 UT   10 05 32.4   +16 17 04     1.850    2.833  173.8    2.2   247   11.3 
2025-02-13 00:00 UT   10 04 34.9   +16 22 47     1.849    2.833  174.6    1.9   238   11.3 
2025-02-14 00:00 UT   10 03 37.1   +16 28 28     1.848    2.833  175.3    1.6   225   11.3 
2025-02-15 00:00 UT   10 02 39.1   +16 34 07     1.848    2.834  175.6    1.5   210   11.3 
2025-02-16 00:00 UT   10 01 40.9   +16 39 42     1.848    2.834  175.7    1.5   193   11.3 
2025-02-17 00:00 UT   10 00 42.7   +16 45 14     1.848    2.834  175.3    1.6   178   11.3 
2025-02-18 00:00 UT   09 59 44.4   +16 50 42     1.848    2.834  174.7    1.8   165   11.3 
2025-02-19 00:00 UT   09 58 46.1   +16 56 06     1.849    2.834  173.9    2.1   155   11.3 
2025-02-20 00:00 UT   09 57 48.0   +17 01 26     1.850    2.834  173.0    2.5   148   11.4 
2025-02-21 00:00 UT   09 56 49.9   +17 06 41     1.852    2.834  171.9    2.8   142   11.4 
2025-02-22 00:00 UT   09 55 52.2   +17 11 51     1.853    2.834  170.8    3.2   138   11.4 
2025-02-23 00:00 UT   09 54 54.7   +17 16 55     1.855    2.834  169.7    3.6   135   11.4 
2025-02-24 00:00 UT   09 53 57.6   +17 21 54     1.858    2.834  168.6    4.0   132   11.5 
2025-02-25 00:00 UT   09 53 00.8   +17 26 47     1.860    2.835  167.4    4.4   130   11.5 
2025-02-26 00:00 UT   09 52 04.6   +17 31 33     1.863    2.835  166.2    4.8   128   11.5 
2025-02-27 00:00 UT   09 51 08.9   +17 36 13     1.866    2.835  165.1    5.2   126   11.5 
2025-02-28 00:00 UT   09 50 13.9   +17 40 47     1.870    2.835  163.9    5.6   125   11.6 
2025-03-01 00:00 UT   09 49 19.5   +17 45 13     1.874    2.835  162.7    6.0   124   11.6 
2025-03-02 00:00 UT   09 48 25.9   +17 49 32     1.878    2.835  161.5    6.4   123   11.6 
2025-03-03 00:00 UT   09 47 33.0   +17 53 43     1.882    2.835  160.3    6.8   122   11.6 
2025-03-04 00:00 UT   09 46 41.0   +17 57 47     1.886    2.835  159.1    7.2   121   11.7 
2025-03-05 00:00 UT   09 45 49.9   +18 01 42     1.891    2.835  157.9    7.6   120   11.7 
2025-03-06 00:00 UT   09 44 59.8   +18 05 30     1.896    2.835  156.7    7.9   119   11.7 
2025-03-07 00:00 UT   09 44 10.7   +18 09 10     1.902    2.835  155.6    8.3   119   11.7 
2025-03-08 00:00 UT   09 43 22.6   +18 12 41     1.907    2.835  154.4    8.7   118   11.8 
2025-03-09 00:00 UT   09 42 35.6   +18 16 04     1.913    2.835  153.2    9.1   118   11.8 
2025-03-10 00:00 UT   09 41 49.8   +18 19 18     1.919    2.835  152.0    9.5   117   11.8 
2025-03-11 00:00 UT   09 41 05.1   +18 22 24     1.926    2.835  150.9    9.8   117   11.8 


    Terminology:
            
    delta:  distance between minor planet and earth in AU
    radius: distance between minor planet and sun in AU
    magn:   magnitude (brightness) estimate    
    ra:     right ascension in hours (24h = 360deg)
    dec:    declination in degrees
    elong:  elongation in degrees (angle sun-earth-minor planet)    
    phase:  phase angle in degrees (angle sun-minor planet-earth)        
    AU:     Astronomical Unit (mean distance between earth and sun: 149597870.7 km
    

Orbital elements provided by the MPC (Minor Planet Center).
Calculations by a modified version of AAPlus, a C# implementation of the AA+ project by PJ Naughter from the algorithms presented in the book "Astronomical Algorithms" by Jean Meeus.
NGC2000 dso catalog and star labels from VizieR as provided by the Strasbourg astronomical Data Center.
Tycho2 catalog from the ESO archive.